This is the latest recevied weather packets stored in our database for station/object OK2ILA-14. If no packets are shown the sender has not sent any weather packets the latest 10 day(s).
| Time | Temp. | Humidity | Pressure | Rain* | Wind** | Luminosity | Snow |
|---|---|---|---|---|---|---|---|
| 1777247075 | 0.56° C | 70% | 1023.8 hPa | - | - | - | - |
| 1777246482 | 1.11° C | 70% | 1023.7 hPa | - | - | - | - |
| 1777245874 | 1.11° C | 70% | 1023.8 hPa | - | - | - | - |
| 1777245273 | 1.11° C | 70% | 1023.7 hPa | - | - | - | - |
| 1777244676 | 1.11° C | 69% | 1023.7 hPa | - | - | - | - |
| 1777244071 | 1.11° C | 69% | 1023.7 hPa | - | - | - | - |
| 1777243471 | 1.67° C | 68% | 1023.6 hPa | - | - | - | - |
| 1777242867 | 1.67° C | 68% | 1023.6 hPa | - | - | - | - |
| 1777242269 | 1.67° C | 67% | 1023.5 hPa | - | - | - | - |
| 1777241668 | 1.67° C | 66% | 1023.5 hPa | - | - | - | - |
| 1777241064 | 2.22° C | 66% | 1023.6 hPa | - | - | - | - |
| 1777240467 | 2.22° C | 65% | 1023.4 hPa | - | - | - | - |
| 1777239866 | 2.22° C | 65% | 1023.5 hPa | - | - | - | - |
| 1777239262 | 2.22° C | 65% | 1023.5 hPa | - | - | - | - |
| 1777238665 | 2.78° C | 64% | 1023.5 hPa | - | - | - | - |
| 1777238064 | 2.78° C | 64% | 1023.4 hPa | - | - | - | - |
| 1777237463 | 2.78° C | 64% | 1023.4 hPa | - | - | - | - |
| 1777236862 | 2.78° C | 64% | 1023.4 hPa | - | - | - | - |
| 1777236262 | 2.78° C | 63% | 1023.4 hPa | - | - | - | - |
| 1777235661 | 2.78° C | 62% | 1023.2 hPa | - | - | - | - |
| 1777235060 | 3.33° C | 61% | 1023.3 hPa | - | - | - | - |
| 1777234459 | 3.33° C | 60% | 1023.2 hPa | - | - | - | - |
| 1777233858 | 3.33° C | 60% | 1023.2 hPa | - | - | - | - |
| 1777233258 | 3.89° C | 59% | 1023.1 hPa | - | - | - | - |
| 1777232657 | 3.89° C | 59% | 1023.1 hPa | - | - | - | - |
* Rain since midnight (hover to see other rain measurements)
** Current wind speed in m/s (hover to see current wind gust speed)